CCA4580 ZWWW-ZUCK

Flight info

Callsign CCA4580
Flight time 3h 4m
Altitude 37100
Route KEX19D KEXAB W192 ESDEX W191 DNC V118 VIKOV B330 VIMAM W235 UBRAB B213 VINEX
Aircraft A346/H-SDE2E3FGHIJ3J4J5M1RWXY/LB1D1

Departure

Time 2026-04-24 01:53
Airport Ürümqi Tianshan International Airport (ZWWW)

Arrival

Time 2026-04-24 04:58
Airport Chongqing Jiangbei International Airport (ZUCK)
Time Latitude Longitude Altitude Speed Heading
2026-04-24 01:15 43.91895 87.47020 2143 ft 0 kts 169°
2026-04-24 01:42 43.91900 87.47018 2143 ft 2 kts 165°
2026-04-24 01:42 43.91914 87.47012 2143 ft 2 kts 154°
2026-04-24 01:43 43.91927 87.47000 2143 ft 2 kts 140°
2026-04-24 01:43 43.91938 87.46986 2143 ft 2 kts 129°
2026-04-24 01:43 43.91946 87.46968 2143 ft 2 kts 118°
2026-04-24 01:43 43.91952 87.46949 2143 ft 2 kts 107°
2026-04-24 01:44 43.91956 87.46928 2143 ft 2 kts 96°
2026-04-24 01:44 43.91956 87.46907 2143 ft 2 kts 84°
2026-04-24 01:44 43.91953 87.46888 2143 ft 1 kts 74°
2026-04-24 01:44 43.91953 87.46883 2143 ft 0 kts 72°
2026-04-24 01:46 43.91954 87.46891 2143 ft 2 kts 72°
2026-04-24 01:46 43.91963 87.46928 2143 ft 5 kts 71°
2026-04-24 01:47 43.91985 87.46967 2143 ft 5 kts 29°
2026-04-24 01:47 43.92029 87.46976 2143 ft 7 kts
2026-04-24 01:47 43.92064 87.46987 2143 ft 5 kts 36°
2026-04-24 01:47 43.92086 87.47047 2143 ft 8 kts 75°
2026-04-24 01:48 43.92102 87.47137 2143 ft 10 kts 77°
2026-04-24 01:48 43.92120 87.47245 2143 ft 12 kts 76°
2026-04-24 01:48 43.92145 87.47368 2143 ft 14 kts 73°
2026-04-24 01:48 43.92176 87.47504 2143 ft 15 kts 73°
2026-04-24 01:49 43.92207 87.47651 2143 ft 16 kts 74°
2026-04-24 01:49 43.92239 87.47804 2143 ft 17 kts 74°
2026-04-24 01:49 43.92273 87.47965 2143 ft 17 kts 74°
2026-04-24 01:49 43.92308 87.48130 2143 ft 18 kts 73°
2026-04-24 01:50 43.92345 87.48301 2143 ft 18 kts 73°
2026-04-24 01:50 43.92384 87.48474 2143 ft 18 kts 74°
2026-04-24 01:50 43.92419 87.48652 2143 ft 19 kts 74°
2026-04-24 01:50 43.92457 87.48831 2143 ft 19 kts 74°
2026-04-24 01:51 43.92497 87.49017 2143 ft 20 kts 73°
2026-04-24 01:51 43.92537 87.49205 2143 ft 20 kts 73°
2026-04-24 01:51 43.92575 87.49382 2143 ft 17 kts 73°
2026-04-24 01:51 43.92652 87.49449 2143 ft 12 kts 353°
2026-04-24 01:52 43.92743 87.49421 2143 ft 14 kts 345°
2026-04-24 01:52 43.92829 87.49380 2143 ft 8 kts 322°
2026-04-24 01:52 43.92835 87.49326 2143 ft 4 kts 259°
2026-04-24 01:52 43.92817 87.49229 2143 ft 35 kts 255°
2026-04-24 01:53 43.92655 87.48510 2143 ft 118 kts 254°
2026-04-24 01:53 43.92357 87.47090 2144 ft 184 kts 254°
2026-04-24 01:53 43.91947 87.45274 2647 ft 205 kts 253°
2026-04-24 01:53 43.91531 87.43360 3550 ft 210 kts 254°
2026-04-24 01:54 43.91112 87.41394 4298 ft 227 kts 255°
2026-04-24 01:54 43.90636 87.39150 4851 ft 258 kts 255°
2026-04-24 01:54 43.90123 87.36742 5916 ft 262 kts 255°
2026-04-24 01:54 43.89618 87.34399 7116 ft 250 kts 254°
2026-04-24 01:55 43.89120 87.32098 8013 ft 250 kts 254°
2026-04-24 01:55 43.88623 87.29793 8784 ft 254 kts 255°
2026-04-24 01:55 43.88208 87.27409 9548 ft 257 kts 269°
2026-04-24 01:55 43.88522 87.24998 10292 ft 258 kts 296°
2026-04-24 01:56 43.89632 87.23060 11028 ft 261 kts 323°
2026-04-24 01:56 43.91303 87.21982 11768 ft 266 kts 341°
2026-04-24 01:56 43.93104 87.21249 12527 ft 269 kts 342°
2026-04-24 01:56 43.94910 87.20532 13258 ft 271 kts 342°
2026-04-24 01:57 43.96721 87.19801 13968 ft 274 kts 341°
2026-04-24 01:57 43.98601 87.19215 14391 ft 290 kts 358°
2026-04-24 01:57 44.00635 87.19900 14680 ft 314 kts 28°
2026-04-24 01:57 44.02364 87.21954 15015 ft 336 kts 45°
2026-04-24 01:58 44.03954 87.24493 15354 ft 354 kts 47°
2026-04-24 01:58 44.05593 87.27144 15664 ft 372 kts 46°
2026-04-24 01:58 44.07344 87.29881 15965 ft 389 kts 45°
2026-04-24 01:58 44.09226 87.32740 16267 ft 405 kts 45°
2026-04-24 01:59 44.11164 87.35634 16772 ft 414 kts 44°
2026-04-24 01:59 44.13145 87.38570 17479 ft 418 kts 44°
2026-04-24 01:59 44.15157 87.41540 18193 ft 422 kts 44°
2026-04-24 01:59 44.17166 87.44498 18847 ft 426 kts 44°
2026-04-24 02:00 44.19223 87.47525 19490 ft 431 kts 44°
2026-04-24 02:00 44.21289 87.50568 20119 ft 435 kts 44°
2026-04-24 02:00 44.23376 87.53644 20737 ft 439 kts 44°
2026-04-24 02:00 44.25480 87.56747 21338 ft 443 kts 44°
2026-04-24 02:01 44.27608 87.59891 21929 ft 447 kts 44°
2026-04-24 02:01 44.29776 87.63097 22510 ft 451 kts 44°
2026-04-24 02:01 44.31924 87.66276 23061 ft 455 kts 44°
2026-04-24 02:01 44.34203 87.69459 23609 ft 458 kts 41°
2026-04-24 02:02 44.36545 87.72479 24146 ft 461 kts 40°
2026-04-24 02:02 44.38927 87.75491 24672 ft 465 kts 39°
2026-04-24 02:02 44.41350 87.78546 25180 ft 468 kts 39°
2026-04-24 02:02 44.43773 87.81609 25672 ft 472 kts 40°
2026-04-24 02:03 44.48647 87.87807 26629 ft 479 kts 40°
2026-04-24 02:03 44.51128 87.90973 27091 ft 483 kts 40°
2026-04-24 02:03 44.53605 87.94230 27536 ft 488 kts 45°
2026-04-24 02:04 44.55560 87.98131 27934 ft 497 kts 61°
2026-04-24 02:04 44.56675 88.02694 28341 ft 504 kts 78°
2026-04-24 02:04 44.56835 88.07656 28841 ft 507 kts 94°
2026-04-24 02:04 44.56398 88.12520 29502 ft 505 kts 97°
2026-04-24 02:05 44.55891 88.17337 30133 ft 503 kts 98°
2026-04-24 02:05 44.55396 88.22219 30723 ft 501 kts 97°
2026-04-24 02:05 44.54945 88.27046 31269 ft 501 kts 96°
2026-04-24 02:05 44.54510 88.31890 31804 ft 500 kts 96°
2026-04-24 02:06 44.54079 88.36723 32345 ft 499 kts 96°
2026-04-24 02:06 44.53648 88.41529 32879 ft 498 kts 96°
2026-04-24 02:06 44.53209 88.46366 33390 ft 497 kts 96°
2026-04-24 02:06 44.52773 88.51138 33867 ft 497 kts 96°
2026-04-24 02:07 44.52346 88.55964 34339 ft 496 kts 96°
2026-04-24 02:07 44.51930 88.60757 34809 ft 495 kts 96°
2026-04-24 02:07 44.51514 88.65540 35277 ft 494 kts 97°
2026-04-24 02:07 44.51098 88.70284 35692 ft 493 kts 97°
2026-04-24 02:08 44.50674 88.75073 36040 ft 494 kts 97°
2026-04-24 02:08 44.50250 88.79828 36325 ft 495 kts 97°
2026-04-24 02:08 44.49818 88.84637 36578 ft 497 kts 97°
2026-04-24 02:08 44.49381 88.89453 36809 ft 499 kts 97°
2026-04-24 02:09 44.48939 88.94302 37014 ft 502 kts 96°
2026-04-24 02:09 44.48497 88.99126 37157 ft 505 kts 96°
2026-04-24 02:09 44.47588 89.09031 37168 ft 517 kts 96°
2026-04-24 02:10 44.46654 89.19018 37168 ft 520 kts 96°
2026-04-24 02:10 44.45690 89.29069 37171 ft 523 kts 97°
2026-04-24 02:11 44.44712 89.39186 37169 ft 524 kts 97°
2026-04-24 02:11 44.43733 89.49263 37169 ft 524 kts 96°
2026-04-24 02:12 44.42739 89.59395 37167 ft 524 kts 96°
2026-04-24 02:12 44.41559 89.69443 37160 ft 524 kts 102°
2026-04-24 02:13 44.39664 89.79283 37153 ft 525 kts 107°
2026-04-24 02:13 44.37535 89.89019 37144 ft 525 kts 107°
2026-04-24 02:14 44.35396 89.98761 37136 ft 525 kts 107°
2026-04-24 02:14 44.33254 90.08536 37125 ft 525 kts 107°
2026-04-24 02:15 44.31109 90.18298 37119 ft 525 kts 107°
2026-04-24 02:15 44.28965 90.28017 37115 ft 525 kts 107°
2026-04-24 02:16 44.26804 90.37760 37113 ft 524 kts 107°
2026-04-24 02:16 44.24648 90.47437 37114 ft 525 kts 107°
2026-04-24 02:17 44.22463 90.57209 37114 ft 525 kts 107°
2026-04-24 02:17 44.20289 90.66880 37112 ft 525 kts 108°
2026-04-24 02:18 44.18093 90.76601 37112 ft 524 kts 108°
2026-04-24 02:18 44.15902 90.86258 37112 ft 525 kts 108°
2026-04-24 02:19 44.13687 90.95968 37113 ft 525 kts 107°
2026-04-24 02:19 44.11464 91.05671 37112 ft 526 kts 107°
2026-04-24 02:20 44.09235 91.15389 37113 ft 528 kts 107°
2026-04-24 02:20 44.06986 91.25134 37113 ft 530 kts 107°
2026-04-24 02:21 44.03733 91.34278 37112 ft 529 kts 128°
2026-04-24 02:21 44.01262 91.38022 37114 ft 526 kts 140°
2026-04-24 02:21 43.98349 91.41019 37120 ft 521 kts 152°
2026-04-24 02:22 43.95126 91.43182 37137 ft 516 kts 163°
2026-04-24 02:22 43.91658 91.44488 37154 ft 510 kts 174°
2026-04-24 02:22 43.84655 91.45744 37177 ft 508 kts 177°
2026-04-24 02:23 43.77671 91.46900 37187 ft 509 kts 176°
2026-04-24 02:23 43.70629 91.48143 37191 ft 509 kts 176°
2026-04-24 02:24 43.63604 91.49414 37194 ft 509 kts 176°
2026-04-24 02:24 43.56614 91.50684 37194 ft 509 kts 176°
2026-04-24 02:25 43.49598 91.51952 37193 ft 509 kts 176°
2026-04-24 02:25 43.42571 91.53220 37193 ft 509 kts 176°
2026-04-24 02:26 43.35562 91.54494 37193 ft 509 kts 176°
2026-04-24 02:26 43.28567 91.55760 37194 ft 509 kts 176°
2026-04-24 02:27 43.21573 91.57021 37194 ft 509 kts 176°
2026-04-24 02:27 43.14519 91.58293 37195 ft 509 kts 176°
2026-04-24 02:28 43.07532 91.59544 37194 ft 509 kts 176°
2026-04-24 02:28 43.00521 91.60796 37195 ft 508 kts 176°
2026-04-24 02:29 42.93515 91.62051 37194 ft 505 kts 176°
2026-04-24 02:29 42.86598 91.63284 37194 ft 502 kts 175°
2026-04-24 02:30 42.79664 91.64520 37194 ft 501 kts 175°
2026-04-24 02:30 42.72765 91.65745 37192 ft 501 kts 176°
2026-04-24 02:31 42.65866 91.66967 37193 ft 500 kts 176°
2026-04-24 02:31 42.58997 91.68177 37193 ft 500 kts 176°
2026-04-24 02:32 42.52066 91.69398 37194 ft 501 kts 176°
2026-04-24 02:32 42.45198 91.70631 37193 ft 501 kts 176°
2026-04-24 02:33 42.38306 91.71873 37194 ft 501 kts 176°
2026-04-24 02:33 42.31408 91.73113 37194 ft 500 kts 176°
2026-04-24 02:34 42.24513 91.74343 37192 ft 501 kts 176°
2026-04-24 02:34 42.17624 91.75581 37194 ft 500 kts 176°
2026-04-24 02:35 42.10743 91.76817 37195 ft 501 kts 176°
2026-04-24 02:35 42.03829 91.78052 37195 ft 501 kts 176°
2026-04-24 02:36 41.96949 91.79269 37194 ft 501 kts 176°
2026-04-24 02:36 41.90007 91.80496 37194 ft 501 kts 176°
2026-04-24 02:37 41.83119 91.81705 37194 ft 501 kts 176°
2026-04-24 02:37 41.76202 91.82921 37195 ft 501 kts 176°
2026-04-24 02:38 41.69425 91.84891 37193 ft 507 kts 163°
2026-04-24 02:38 41.63160 91.89245 37195 ft 514 kts 147°
2026-04-24 02:39 41.57941 91.95791 37193 ft 519 kts 130°
2026-04-24 02:39 41.53877 92.03818 37195 ft 521 kts 123°
2026-04-24 02:40 41.50040 92.11937 37193 ft 521 kts 123°
2026-04-24 02:40 41.46149 92.20076 37192 ft 521 kts 124°
2026-04-24 02:41 41.42233 92.28181 37192 ft 521 kts 124°
2026-04-24 02:41 41.38306 92.36264 37193 ft 521 kts 124°
2026-04-24 02:42 41.34363 92.44351 37195 ft 521 kts 124°
2026-04-24 02:42 41.30424 92.52412 37195 ft 521 kts 124°
2026-04-24 02:43 41.26488 92.60442 37194 ft 521 kts 124°
2026-04-24 02:43 41.22510 92.68540 37193 ft 521 kts 124°
2026-04-24 02:44 41.18548 92.76583 37194 ft 521 kts 124°
2026-04-24 02:44 41.14582 92.84611 37195 ft 520 kts 124°
2026-04-24 02:45 41.10598 92.92660 37194 ft 521 kts 125°
2026-04-24 02:45 41.06638 93.00648 37193 ft 522 kts 126°
2026-04-24 02:46 41.02640 93.08688 37194 ft 522 kts 126°
2026-04-24 02:46 40.98639 93.16703 37195 ft 523 kts 127°
2026-04-24 02:47 40.94606 93.24751 37195 ft 522 kts 127°
2026-04-24 02:47 40.90617 93.32690 37195 ft 522 kts 127°
2026-04-24 02:48 40.86597 93.40677 37195 ft 522 kts 127°
2026-04-24 02:48 40.82575 93.48646 37194 ft 522 kts 127°
2026-04-24 02:49 40.78523 93.56651 37194 ft 522 kts 127°
2026-04-24 02:49 40.74353 93.64463 37194 ft 519 kts 131°
2026-04-24 02:50 40.69869 93.71938 37194 ft 518 kts 133°
2026-04-24 02:50 40.65380 93.79360 37194 ft 518 kts 133°
2026-04-24 02:51 40.60910 93.86742 37195 ft 518 kts 133°
2026-04-24 02:51 40.56424 93.94140 37194 ft 518 kts 133°
2026-04-24 02:52 40.51931 94.01533 37194 ft 518 kts 133°
2026-04-24 02:52 40.47409 94.08956 37194 ft 519 kts 133°
2026-04-24 02:53 40.42916 94.16315 37194 ft 519 kts 133°
2026-04-24 02:53 40.38389 94.23713 37194 ft 519 kts 133°
2026-04-24 02:54 40.33882 94.31059 37195 ft 519 kts 133°
2026-04-24 02:54 40.29370 94.38397 37195 ft 519 kts 133°
2026-04-24 02:55 40.24829 94.45761 37195 ft 519 kts 133°
2026-04-24 02:55 40.20319 94.53056 37195 ft 519 kts 133°
2026-04-24 02:56 40.15784 94.60374 37195 ft 519 kts 133°
2026-04-24 02:56 40.11422 94.67940 37192 ft 522 kts 128°
2026-04-24 02:57 40.07690 94.76068 37194 ft 525 kts 121°
2026-04-24 02:57 40.04464 94.84618 37194 ft 526 kts 119°
2026-04-24 02:58 40.01292 94.93165 37194 ft 527 kts 120°
2026-04-24 02:58 39.98049 95.01781 37194 ft 528 kts 121°
2026-04-24 02:59 39.94941 95.09991 37194 ft 528 kts 121°
2026-04-24 02:59 39.91711 95.18540 37194 ft 528 kts 121°
2026-04-24 03:00 39.88466 95.27115 37196 ft 528 kts 121°
2026-04-24 03:00 39.85218 95.35676 37198 ft 528 kts 121°
2026-04-24 03:01 39.81961 95.44207 37219 ft 528 kts 121°
2026-04-24 03:01 39.78686 95.52753 37252 ft 528 kts 121°
2026-04-24 03:02 39.75399 95.61314 37289 ft 528 kts 121°
2026-04-24 03:02 39.72121 95.69829 37308 ft 527 kts 122°
2026-04-24 03:03 39.68843 95.78329 37320 ft 527 kts 121°
2026-04-24 03:03 39.65548 95.86842 37326 ft 528 kts 121°
2026-04-24 03:04 39.62272 95.95279 37329 ft 527 kts 122°
2026-04-24 03:04 39.58952 96.03797 37329 ft 527 kts 121°
2026-04-24 03:05 39.55636 96.12283 37329 ft 527 kts 121°
2026-04-24 03:05 39.52332 96.20695 37330 ft 528 kts 122°
2026-04-24 03:06 39.48996 96.29148 37329 ft 527 kts 122°
2026-04-24 03:06 39.45657 96.37578 37330 ft 527 kts 122°
2026-04-24 03:07 39.42305 96.46011 37329 ft 527 kts 122°
2026-04-24 03:07 39.38938 96.54459 37322 ft 527 kts 122°
2026-04-24 03:08 39.33880 96.67104 37189 ft 528 kts 122°
2026-04-24 03:09 39.30503 96.75513 37135 ft 527 kts 122°
2026-04-24 03:09 39.27126 96.83897 37108 ft 527 kts 122°
2026-04-24 03:10 39.23792 96.92304 37096 ft 527 kts 122°
2026-04-24 03:10 39.20457 97.00755 37090 ft 528 kts 122°
2026-04-24 03:11 39.17115 97.09196 37087 ft 531 kts 122°
2026-04-24 03:11 39.13741 97.17673 37086 ft 533 kts 122°
2026-04-24 03:12 39.10344 97.26180 37087 ft 536 kts 122°
2026-04-24 03:12 39.06921 97.34724 37087 ft 536 kts 122°
2026-04-24 03:13 39.03506 97.43230 37088 ft 536 kts 122°
2026-04-24 03:13 39.00089 97.51718 37088 ft 536 kts 122°
2026-04-24 03:14 38.96636 97.60262 37088 ft 537 kts 123°
2026-04-24 03:14 38.93183 97.68790 37083 ft 537 kts 123°
2026-04-24 03:15 38.89745 97.77273 37086 ft 538 kts 124°
2026-04-24 03:15 38.86274 97.85799 37088 ft 539 kts 124°
2026-04-24 03:16 38.82795 97.94306 37087 ft 538 kts 124°
2026-04-24 03:16 38.79299 98.02831 37087 ft 539 kts 124°
2026-04-24 03:17 38.75811 98.11319 37086 ft 538 kts 124°
2026-04-24 03:17 38.72318 98.19794 37087 ft 538 kts 124°
2026-04-24 03:18 38.68810 98.28278 37087 ft 539 kts 124°
2026-04-24 03:18 38.65319 98.36707 37087 ft 538 kts 124°
2026-04-24 03:19 38.61785 98.45209 37087 ft 539 kts 124°
2026-04-24 03:19 38.58276 98.53629 37087 ft 539 kts 124°
2026-04-24 03:20 38.54739 98.62096 37087 ft 538 kts 124°
2026-04-24 03:20 38.51214 98.70513 37085 ft 538 kts 124°
2026-04-24 03:21 38.47686 98.78913 37087 ft 537 kts 125°
2026-04-24 03:21 38.44140 98.87330 37087 ft 538 kts 125°
2026-04-24 03:22 38.40580 98.95759 37086 ft 538 kts 125°
2026-04-24 03:22 38.37018 99.04168 37087 ft 540 kts 125°
2026-04-24 03:23 38.33439 99.12592 37087 ft 541 kts 125°
2026-04-24 03:23 38.29845 99.21031 37157 ft 543 kts 125°
2026-04-24 03:24 38.26238 99.29482 37228 ft 543 kts 125°
2026-04-24 03:24 38.22625 99.37928 37269 ft 543 kts 125°
2026-04-24 03:25 38.19017 99.46341 37288 ft 542 kts 125°
2026-04-24 03:25 38.15399 99.54745 37297 ft 543 kts 125°
2026-04-24 03:26 38.11761 99.63178 37302 ft 543 kts 125°
2026-04-24 03:26 38.08129 99.71578 37300 ft 542 kts 126°
2026-04-24 03:27 38.04503 99.79939 37303 ft 542 kts 126°
2026-04-24 03:27 38.00851 99.88335 37303 ft 542 kts 126°
2026-04-24 03:28 37.97206 99.96693 37303 ft 542 kts 126°
2026-04-24 03:28 37.93546 100.05069 37304 ft 542 kts 126°
2026-04-24 03:29 37.89896 100.13397 37304 ft 542 kts 125°
2026-04-24 03:29 37.86232 100.21736 37304 ft 542 kts 126°
2026-04-24 03:30 37.82567 100.30053 37303 ft 542 kts 126°
2026-04-24 03:30 37.78894 100.38365 37303 ft 542 kts 126°
2026-04-24 03:31 37.75212 100.46675 37303 ft 542 kts 126°
2026-04-24 03:31 37.71525 100.54974 37303 ft 543 kts 125°
2026-04-24 03:32 37.67833 100.63261 37303 ft 542 kts 126°
2026-04-24 03:32 37.64152 100.71614 37300 ft 542 kts 125°
2026-04-24 03:33 37.60632 100.80019 37303 ft 544 kts 124°
2026-04-24 03:33 37.57100 100.88469 37303 ft 543 kts 124°
2026-04-24 03:34 37.53548 100.96896 37303 ft 544 kts 125°
2026-04-24 03:34 37.50005 101.05255 37303 ft 545 kts 125°
2026-04-24 03:35 37.46432 101.13660 37303 ft 545 kts 125°
2026-04-24 03:35 37.42846 101.22075 37303 ft 544 kts 125°
2026-04-24 03:36 37.39263 101.30450 37304 ft 545 kts 125°
2026-04-24 03:36 37.35652 101.38880 37303 ft 545 kts 125°
2026-04-24 03:37 37.32113 101.47226 37304 ft 547 kts 123°
2026-04-24 03:37 37.29066 101.56094 37303 ft 554 kts 115°
2026-04-24 03:38 37.26781 101.65359 37304 ft 558 kts 111°
2026-04-24 03:38 37.24682 101.74757 37301 ft 557 kts 111°
2026-04-24 03:39 37.22550 101.84147 37303 ft 557 kts 111°
2026-04-24 03:39 37.20399 101.93465 37303 ft 558 kts 111°
2026-04-24 03:40 37.18235 102.02795 37303 ft 558 kts 111°
2026-04-24 03:40 37.16058 102.12157 37304 ft 557 kts 111°
2026-04-24 03:41 37.13878 102.21476 37304 ft 557 kts 112°
2026-04-24 03:41 37.11259 102.30545 37303 ft 550 kts 119°
2026-04-24 03:42 37.07860 102.39027 37303 ft 543 kts 127°
2026-04-24 03:42 37.03886 102.47029 37304 ft 540 kts 130°
2026-04-24 03:43 36.99851 102.54991 37304 ft 541 kts 130°
2026-04-24 03:43 36.95843 102.62962 37304 ft 541 kts 130°
2026-04-24 03:44 36.91838 102.70937 37301 ft 539 kts 130°
2026-04-24 03:44 36.87837 102.78891 37305 ft 539 kts 130°
2026-04-24 03:45 36.83873 102.86752 37304 ft 539 kts 130°
2026-04-24 03:45 36.80152 102.94958 37303 ft 547 kts 124°
2026-04-24 03:46 36.76831 103.03539 37303 ft 550 kts 122°
2026-04-24 03:46 36.73507 103.12180 37303 ft 551 kts 122°
2026-04-24 03:47 36.70164 103.20789 37303 ft 552 kts 122°
2026-04-24 03:47 36.66820 103.29377 37303 ft 552 kts 122°
2026-04-24 03:48 36.63463 103.37970 37303 ft 553 kts 122°
2026-04-24 03:48 36.60098 103.46555 37303 ft 553 kts 122°
2026-04-24 03:49 36.56709 103.55177 37304 ft 553 kts 122°
2026-04-24 03:49 36.53248 103.63686 37303 ft 549 kts 126°
2026-04-24 03:50 36.49433 103.71912 37301 ft 548 kts 128°
2026-04-24 03:50 36.45594 103.80051 37303 ft 548 kts 128°
2026-04-24 03:51 36.41743 103.88230 37304 ft 547 kts 127°
2026-04-24 03:51 36.37898 103.96401 37304 ft 547 kts 128°
2026-04-24 03:52 36.34072 104.04507 37303 ft 547 kts 127°
2026-04-24 03:52 36.30232 104.12638 37304 ft 548 kts 127°
2026-04-24 03:53 36.26362 104.20811 37304 ft 548 kts 127°
2026-04-24 03:53 36.21792 104.28084 37299 ft 524 kts 147°
2026-04-24 03:53 36.18944 104.30790 37301 ft 509 kts 157°
2026-04-24 03:54 36.15856 104.32809 37303 ft 496 kts 167°
2026-04-24 03:54 36.12681 104.34135 37303 ft 483 kts 176°
2026-04-24 03:54 36.09403 104.34834 37304 ft 470 kts 185°
2026-04-24 03:55 36.02975 104.35017 37304 ft 463 kts 189°
2026-04-24 03:55 35.96535 104.35062 37303 ft 463 kts 189°
2026-04-24 03:56 35.90116 104.35152 37303 ft 463 kts 189°
2026-04-24 03:56 35.83660 104.35266 37303 ft 463 kts 189°
2026-04-24 03:57 35.77220 104.35377 37303 ft 463 kts 189°
2026-04-24 03:57 35.70789 104.35480 37303 ft 464 kts 189°
2026-04-24 03:58 35.64344 104.35582 37303 ft 463 kts 189°
2026-04-24 03:58 35.57899 104.35681 37303 ft 464 kts 189°
2026-04-24 03:59 35.51477 104.35781 37303 ft 464 kts 189°
2026-04-24 03:59 35.45036 104.35889 37303 ft 464 kts 189°
2026-04-24 04:00 35.38579 104.35998 37302 ft 464 kts 189°
2026-04-24 04:00 35.32133 104.36103 37302 ft 464 kts 189°
2026-04-24 04:01 35.25695 104.36206 37303 ft 463 kts 189°
2026-04-24 04:01 35.19306 104.36308 37303 ft 463 kts 189°
2026-04-24 04:02 35.12873 104.36413 37302 ft 463 kts 189°
2026-04-24 04:02 35.06394 104.36515 37303 ft 463 kts 189°
2026-04-24 04:03 35.00040 104.36614 37302 ft 463 kts 188°
2026-04-24 04:03 34.93529 104.36709 37303 ft 464 kts 188°
2026-04-24 04:04 34.87072 104.36809 37305 ft 464 kts 187°
2026-04-24 04:04 34.80638 104.36913 37302 ft 465 kts 187°
2026-04-24 04:05 34.74163 104.37018 37302 ft 465 kts 187°
2026-04-24 04:05 34.67696 104.37118 37303 ft 465 kts 187°
2026-04-24 04:06 34.61254 104.37219 37302 ft 464 kts 187°
2026-04-24 04:06 34.54822 104.37321 37302 ft 464 kts 187°
2026-04-24 04:07 34.48369 104.37421 37302 ft 464 kts 187°
2026-04-24 04:07 34.41917 104.37521 37302 ft 465 kts 187°
2026-04-24 04:08 34.35429 104.37621 37304 ft 464 kts 187°
2026-04-24 04:08 34.28978 104.37723 37303 ft 465 kts 187°
2026-04-24 04:09 34.22552 104.37823 37304 ft 464 kts 187°
2026-04-24 04:09 34.16090 104.37923 37304 ft 464 kts 187°
2026-04-24 04:10 34.09640 104.38023 37302 ft 465 kts 187°
2026-04-24 04:10 34.03158 104.38122 37303 ft 465 kts 187°
2026-04-24 04:11 33.93473 104.38269 37304 ft 464 kts 187°
2026-04-24 04:11 33.87015 104.38367 37304 ft 465 kts 187°
2026-04-24 04:12 33.80570 104.38464 37303 ft 465 kts 187°
2026-04-24 04:12 33.74113 104.38560 37303 ft 465 kts 187°
2026-04-24 04:13 33.67612 104.38937 37303 ft 472 kts 181°
2026-04-24 04:13 33.61107 104.40448 37303 ft 483 kts 173°
2026-04-24 04:14 33.54726 104.43196 37300 ft 495 kts 164°
2026-04-24 04:14 33.48639 104.47131 37277 ft 503 kts 157°
2026-04-24 04:15 33.42502 104.51036 37242 ft 495 kts 165°
2026-04-24 04:15 33.36083 104.53778 37208 ft 483 kts 173°
2026-04-24 04:16 33.29595 104.55320 37187 ft 473 kts 181°
2026-04-24 04:16 33.23111 104.55878 37175 ft 467 kts 185°
2026-04-24 04:17 33.16617 104.56268 37171 ft 467 kts 185°
2026-04-24 04:17 33.10150 104.56670 37168 ft 468 kts 185°
2026-04-24 04:18 33.03623 104.57077 37166 ft 470 kts 184°
2026-04-24 04:18 32.97096 104.57490 37166 ft 473 kts 184°
2026-04-24 04:19 32.90515 104.57914 37168 ft 474 kts 183°
2026-04-24 04:19 32.83943 104.58999 37165 ft 488 kts 169°
2026-04-24 04:20 32.80743 104.60532 37165 ft 500 kts 159°
2026-04-24 04:20 32.77794 104.62739 37167 ft 511 kts 148°
2026-04-24 04:20 32.72955 104.69143 37164 ft 530 kts 126°
2026-04-24 04:21 32.69940 104.77211 37172 ft 537 kts 115°
2026-04-24 04:21 32.67279 104.85460 37169 ft 537 kts 115°
2026-04-24 04:22 32.64558 104.93715 37168 ft 536 kts 116°
2026-04-24 04:22 32.61779 105.01958 37169 ft 536 kts 116°
2026-04-24 04:23 32.59007 105.10133 37168 ft 536 kts 116°
2026-04-24 04:23 32.56227 105.18301 37167 ft 535 kts 116°
2026-04-24 04:24 32.53426 105.26514 37167 ft 535 kts 116°
2026-04-24 04:24 32.50630 105.34695 37168 ft 535 kts 115°
2026-04-24 04:25 32.47839 105.42827 37168 ft 534 kts 116°
2026-04-24 04:25 32.45000 105.50964 37168 ft 535 kts 116°
2026-04-24 04:26 32.42160 105.59095 37168 ft 535 kts 115°
2026-04-24 04:26 32.39757 105.67476 37165 ft 539 kts 109°
2026-04-24 04:27 32.38164 105.76170 37167 ft 541 kts 101°
2026-04-24 04:27 32.37331 105.85027 37169 ft 543 kts 97°
2026-04-24 04:28 32.36665 105.93927 37168 ft 543 kts 97°
2026-04-24 04:28 32.35841 106.02783 37160 ft 540 kts 105°
2026-04-24 04:29 32.34709 106.06973 37165 ft 533 kts 117°
2026-04-24 04:29 32.32960 106.10796 37167 ft 526 kts 129°
2026-04-24 04:29 32.28032 106.16962 37168 ft 509 kts 149°
2026-04-24 04:30 32.21898 106.20740 37168 ft 491 kts 168°
2026-04-24 04:30 32.15323 106.22808 37168 ft 487 kts 172°
2026-04-24 04:31 32.08773 106.24744 37167 ft 488 kts 172°
2026-04-24 04:31 32.02214 106.26728 37168 ft 489 kts 172°
2026-04-24 04:32 31.95632 106.28744 37168 ft 489 kts 172°
2026-04-24 04:32 31.89026 106.30772 37168 ft 488 kts 172°
2026-04-24 04:33 31.82459 106.32787 37168 ft 488 kts 172°
2026-04-24 04:33 31.75888 106.34803 37167 ft 488 kts 172°
2026-04-24 04:34 31.69336 106.36818 37167 ft 489 kts 172°
2026-04-24 04:34 31.62788 106.38824 37167 ft 488 kts 172°
2026-04-24 04:35 31.56194 106.40838 37167 ft 489 kts 172°
2026-04-24 04:35 31.49628 106.42838 37168 ft 489 kts 172°
2026-04-24 04:36 31.43042 106.44843 37168 ft 488 kts 172°
2026-04-24 04:36 31.36475 106.46841 37164 ft 486 kts 172°
2026-04-24 04:37 31.33230 106.47830 36968 ft 476 kts 172°
2026-04-24 04:37 31.30063 106.48798 36199 ft 468 kts 172°
2026-04-24 04:37 31.26978 106.49736 35226 ft 463 kts 172°
2026-04-24 04:37 31.23853 106.50680 34061 ft 463 kts 172°
2026-04-24 04:38 31.20755 106.51611 32691 ft 467 kts 172°
2026-04-24 04:38 31.17592 106.52555 31050 ft 477 kts 171°
2026-04-24 04:38 31.14380 106.53509 29172 ft 490 kts 170°
2026-04-24 04:38 31.11074 106.54487 27155 ft 503 kts 169°
2026-04-24 04:39 31.07684 106.55498 25495 ft 504 kts 168°
2026-04-24 04:39 31.04354 106.56504 24456 ft 491 kts 167°
2026-04-24 04:39 31.01129 106.57479 23438 ft 480 kts 166°
2026-04-24 04:39 30.97976 106.58425 22651 ft 452 kts 166°
2026-04-24 04:40 30.95008 106.59310 21965 ft 428 kts 167°
2026-04-24 04:40 30.92183 106.60171 21044 ft 414 kts 167°
2026-04-24 04:40 30.89424 106.61018 19806 ft 410 kts 167°
2026-04-24 04:40 30.86701 106.61845 18496 ft 408 kts 167°
2026-04-24 04:41 30.83974 106.62667 17249 ft 404 kts 167°
2026-04-24 04:41 30.81317 106.63465 16097 ft 398 kts 166°
2026-04-24 04:41 30.78635 106.64269 14936 ft 392 kts 166°
2026-04-24 04:41 30.76048 106.65044 13800 ft 386 kts 166°
2026-04-24 04:42 30.73466 106.65815 12648 ft 381 kts 166°
2026-04-24 04:42 30.70938 106.66570 11506 ft 375 kts 166°
2026-04-24 04:42 30.68456 106.67311 10378 ft 370 kts 166°
2026-04-24 04:42 30.66009 106.68041 9290 ft 364 kts 166°
2026-04-24 04:43 30.63606 106.68758 8514 ft 349 kts 166°
2026-04-24 04:43 30.61320 106.69439 8000 ft 330 kts 166°
2026-04-24 04:43 30.59160 106.70084 7576 ft 311 kts 166°
2026-04-24 04:43 30.57126 106.70693 7228 ft 294 kts 166°
2026-04-24 04:44 30.55188 106.71270 6905 ft 278 kts 166°
2026-04-24 04:44 30.53343 106.71819 6496 ft 274 kts 166°
2026-04-24 04:44 30.51508 106.72364 6144 ft 272 kts 166°
2026-04-24 04:44 30.49663 106.72909 5906 ft 270 kts 166°
2026-04-24 04:45 30.47842 106.73447 5903 ft 271 kts 166°
2026-04-24 04:45 30.46028 106.73985 5902 ft 271 kts 166°
2026-04-24 04:45 30.44189 106.74526 5899 ft 271 kts 167°
2026-04-24 04:45 30.42365 106.75063 5899 ft 272 kts 167°
2026-04-24 04:46 30.40531 106.75603 5905 ft 273 kts 167°
2026-04-24 04:46 30.38633 106.76160 6332 ft 286 kts 166°
2026-04-24 04:46 30.36736 106.76720 7473 ft 282 kts 166°
2026-04-24 04:46 30.34850 106.77282 8275 ft 283 kts 166°
2026-04-24 04:47 30.32930 106.77850 8737 ft 284 kts 166°
2026-04-24 04:47 30.31026 106.78414 8894 ft 284 kts 166°
2026-04-24 04:47 30.29093 106.78986 8892 ft 284 kts 166°
2026-04-24 04:47 30.27185 106.79547 8897 ft 283 kts 166°
2026-04-24 04:48 30.25280 106.80109 8898 ft 283 kts 166°
2026-04-24 04:48 30.23390 106.80668 8782 ft 278 kts 166°
2026-04-24 04:48 30.21505 106.81226 8448 ft 275 kts 166°
2026-04-24 04:48 30.19671 106.81765 8184 ft 270 kts 166°
2026-04-24 04:49 30.17861 106.82264 7933 ft 264 kts 170°
2026-04-24 04:49 30.16076 106.82629 7675 ft 254 kts 170°
2026-04-24 04:49 30.14383 106.82659 7396 ft 240 kts 197°
2026-04-24 04:49 30.12933 106.81838 7191 ft 221 kts 213°
2026-04-24 04:50 30.11669 106.80943 6930 ft 206 kts 208°
2026-04-24 04:50 30.10397 106.80273 6652 ft 198 kts 201°
2026-04-24 04:50 30.09103 106.79745 6258 ft 198 kts 198°
2026-04-24 04:50 30.07805 106.79264 5931 ft 193 kts 198°
2026-04-24 04:51 30.06519 106.78803 5904 ft 193 kts 196°
2026-04-24 04:51 30.05232 106.78348 5902 ft 193 kts 197°
2026-04-24 04:51 30.03943 106.77894 5900 ft 193 kts 197°
2026-04-24 04:51 30.02657 106.77442 5899 ft 193 kts 196°
2026-04-24 04:52 30.01358 106.76989 5900 ft 194 kts 197°
2026-04-24 04:52 30.00081 106.76543 5899 ft 193 kts 197°
2026-04-24 04:52 29.98786 106.76090 5899 ft 193 kts 197°
2026-04-24 04:52 29.97497 106.75640 5882 ft 193 kts 196°
2026-04-24 04:53 29.96209 106.75191 5684 ft 193 kts 196°
2026-04-24 04:53 29.94929 106.74747 5428 ft 191 kts 196°
2026-04-24 04:53 29.93652 106.74303 5168 ft 191 kts 196°
2026-04-24 04:53 29.92392 106.73864 4919 ft 190 kts 197°
2026-04-24 04:54 29.91123 106.73420 4667 ft 189 kts 196°
2026-04-24 04:54 29.89861 106.72980 4418 ft 189 kts 197°
2026-04-24 04:54 29.88613 106.72546 4160 ft 180 kts 197°
2026-04-24 04:54 29.87461 106.72145 3911 ft 168 kts 195°
2026-04-24 04:55 29.86351 106.71760 3692 ft 162 kts 195°
2026-04-24 04:55 29.85301 106.71394 3484 ft 157 kts 196°
2026-04-24 04:55 29.84260 106.71031 3290 ft 156 kts 196°
2026-04-24 04:55 29.83219 106.70668 3092 ft 155 kts 196°
2026-04-24 04:56 29.82190 106.70308 2890 ft 155 kts 196°
2026-04-24 04:56 29.81164 106.69951 2683 ft 154 kts 196°
2026-04-24 04:56 29.80125 106.69589 2471 ft 154 kts 197°
2026-04-24 04:56 29.79107 106.69231 2260 ft 153 kts 196°
2026-04-24 04:57 29.78085 106.68871 2052 ft 153 kts 195°
2026-04-24 04:57 29.77071 106.68529 1859 ft 153 kts 195°
2026-04-24 04:57 29.76042 106.68168 1652 ft 153 kts 196°
2026-04-24 04:57 29.75023 106.67815 1431 ft 151 kts 195°
2026-04-24 04:58 29.74109 106.67510 1379 ft 117 kts 199°
2026-04-24 04:58 29.73507 106.67283 1379 ft 63 kts 204°
2026-04-24 04:58 29.73283 106.67108 1379 ft 24 kts 224°
2026-04-24 04:58 29.73158 106.66972 1379 ft 25 kts 217°
2026-04-24 04:59 29.72999 106.66895 1379 ft 25 kts 196°
2026-04-24 04:59 29.72825 106.66835 1379 ft 26 kts 199°
2026-04-24 04:59 29.72644 106.66772 1379 ft 27 kts 196°
2026-04-24 04:59 29.72458 106.66707 1379 ft 27 kts 197°
2026-04-24 05:00 29.72307 106.66653 1379 ft 14 kts 211°
2026-04-24 05:00 29.72289 106.66548 1379 ft 15 kts 285°
2026-04-24 05:00 29.72323 106.66422 1379 ft 17 kts 288°
2026-04-24 05:00 29.72362 106.66286 1379 ft 18 kts 288°
2026-04-24 05:01 29.72366 106.66175 1379 ft 13 kts 225°
2026-04-24 05:01 29.72276 106.66129 1379 ft 15 kts 198°
2026-04-24 05:01 29.72171 106.66090 1379 ft 16 kts 198°
2026-04-24 05:01 29.72055 106.66052 1379 ft 18 kts 196°
2026-04-24 05:02 29.71932 106.66009 1379 ft 19 kts 197°
2026-04-24 05:02 29.71799 106.65963 1379 ft 20 kts 197°
2026-04-24 05:02 29.71660 106.65916 1379 ft 21 kts 196°
2026-04-24 05:02 29.71513 106.65865 1379 ft 22 kts 197°
2026-04-24 05:03 29.71363 106.65797 1379 ft 23 kts 209°
2026-04-24 05:03 29.71256 106.65720 1379 ft 8 kts 215°
2026-04-24 05:03 29.71242 106.65673 1379 ft 8 kts 283°
2026-04-24 05:03 29.71269 106.65600 1379 ft 11 kts 296°
2026-04-24 05:04 29.71300 106.65526 1379 ft 5 kts 296°
2026-04-24 05:04 29.71302 106.65521 1379 ft 0 kts 296°